STARLINK-34580, 65808

Orbit data source: Space-Track

STARLINK-34580, 65808 is a payload satellite owned by SpaceX/Seattle (US) in SSO that was launched on Fri, 26 Sep 2025 UTC via an FALCON 9 launch vehicle from the Air Force Western Test Range (AFWTR). Payload-class satellites include a variety of spacecraft equipped with specific instruments for various scientific and technological missions. These include communications satellites like Starlink; space stations such as the ISS; scientific satellites like the Hubble; Earth observation satellites from companies like Planet Labs, Umbra, and HawkEye 360; GPS; miniature CubeSats for education and research; and military/defense satellites.

Loading next visibility...
Identifier
65808, 2025-218T
Orbit
SSO
Country
Flag of USUS
Related business
Manufacturer
SpaceX/Seattle
Mission
Operational Commercial Communications
Bus & Motor
STARLINK V2MO, Unknown motor
Mass
575 kg wet, ~530 kg dry
Launch date (UTC)
2025-09-26 (5 months ago)
Launch vehicle
FALCON 9
Launch site
Air Force Western Test Range (AFWTR)
Object type
Payload
Rocket body
Debris
Shape & HBR
Box + 2 Pan, 17.7 m
Radar Cross Section
36.964 m²

Expand to show TLE details & history
Last TLE update: 9 hours ago

TLE from 9 hours ago
0 STARLINK-34580
1 65808U 25218T   26062.59981771  .00007397  00000-0  51614-3 0  9994
2 65808  97.6021 286.9569 0001994  65.7589 294.3846 15.05662372 24056
Epoch: 2026-03-03T14:23Z
TLE epoch observation values (Epoch: 2026-03-03T14:23:44.250Z)
Latitude
-0°
Longitude
-90.35403°
Altitude
551.968 km
Speed
7.586 km/s
True Right ascension
19h 07m 49s
True Declination
0° 00' 00"
Sunlit
Object was in daylight at epoch
Visualization orbit readout
Latitude
Unknown
Longitude
Unknown
Altitude
Unknown
Speed
Unknown
Apparent Right ascension
Unknown
Apparent Declination
Unknown
Sunlit
N/A
Visualization observer readout
Local Sidereal Time
02:49:50
Azimuth
Unknown
Elevation
Unknown
Doppler factor
Unknown
Orbital elements
Apogee altitude
547.847 km
Perigee altitude
545.086 km
Semi-major axis
6,924.604 km
Eccentricity
0.0002
Inclination
97.6021°
RAAN
286.9569°
Arg. of periapsis
65.7589°
True anomaly
294.36379°
Mean anomaly
294.3846°
Eccentric anomaly
294.37419°
Mean motion
3.76661 °/min
Orbital period
95.58 mins
BSTAR
0.00051614
Loading maneuver chart data...
Computing Atmospheric mass density...
Loading historical data...
Loading historical data...
Loading historical data...
Loading historical data...
Loading historical data...
Loading historical data...
Loading historical data...

Documentation

Showing up to 5 results
|